GFSCGP_sfc_thetae_108.txt.gz
Theta_e
288 283 279 281 284 288 285 282 280 283 287 289 288 289 296 297 298 300 301 299 303 304 305 306 307 305 304 306 330 334 334 334 335 333 331 329 329 328 330 332 332 332 333 331
285 281 287 290 288 284 284 284 282 285 287 287 290 291 295 298 299 299 299 300 301 301 305 306 306 306 307 307 327 333 334 333 334 336 335 332 332 329 329 330 332 332 331 331
283 285 290 289 287 284 281 281 284 283 285 289 291 288 292 297 300 302 303 303 304 304 307 309 309 309 311 312 316 330 331 332 334 335 333 327 326 326 325 326 327 329 331 330
284 289 287 287 285 287 280 286 286 286 282 278 290 279 289 293 295 299 301 301 305 305 305 305 304 304 305 307 311 313 329 332 332 329 331 328 328 325 328 328 327 328 329 328
284 286 286 285 286 289 284 288 286 286 281 282 285 283 286 294 293 296 299 302 301 301 300 299 299 300 301 302 304 308 309 317 322 329 330 328 328 328 324 325 325 327 327 327
287 292 289 287 289 289 290 288 288 287 283 275 282 283 283 291 293 300 299 299 297 296 295 296 297 298 298 300 300 303 303 306 310 316 330 329 327 324 323 324 324 325 326 326
285 286 287 291 287 288 288 285 275 273 274 276 286 284 286 297 301 299 295 294 294 294 293 292 292 293 295 296 297 300 299 301 304 305 316 329 327 325 324 324 324 323 323 324
279 277 287 293 287 283 286 285 278 274 276 279 288 282 288 296 297 295 294 293 292 291 291 291 291 292 293 295 295 296 297 299 302 303 308 326 329 326 326 325 325 323 323 323
281 281 289 290 291 290 286 283 288 284 284 277 283 289 294 295 293 292 291 290 290 290 291 291 292 292 292 293 293 294 296 297 300 304 306 317 330 326 326 325 324 323 323 321
288 279 288 293 294 293 288 291 282 281 271 269 282 284 286 288 288 289 289 289 290 290 290 290 291 291 292 292 293 294 296 295 299 303 310 319 329 327 326 324 322 322 321 320
292 284 287 291 288 287 287 285 288 288 285 277 277 281 290 287 288 286 287 289 289 289 289 290 290 291 291 292 293 293 294 294 296 301 313 323 324 322 322 323 323 322 321 319
291 287 283 286 293 294 292 289 289 281 280 284 283 279 288 290 290 289 288 289 289 289 289 289 289 289 290 290 291 292 293 293 296 299 304 320 321 321 321 322 321 321 319 319
291 287 280 283 288 292 289 291 291 290 287 283 280 279 290 291 289 289 287 288 288 288 288 288 288 288 288 289 289 289 292 292 294 296 298 302 305 319 319 321 320 321 319 319
293 288 283 278 283 285 286 290 291 289 284 283 283 283 286 287 287 287 287 288 288 287 287 287 286 287 287 288 288 289 289 292 292 294 295 295 297 303 316 321 321 320 320 319
290 283 285 288 288 289 287 286 288 288 287 282 284 283 285 286 286 287 287 287 287 286 285 285 285 286 286 286 287 288 288 289 291 290 291 292 294 296 299 307 322 321 320 320
291 284 285 284 287 287 284 285 286 287 287 286 285 281 287 287 286 285 285 286 285 284 283 284 285 285 285 286 286 286 287 287 289 289 289 290 292 292 294 295 298 300 300 300
287 285 284 281 286 285 278 282 283 284 286 286 282 284 285 282 282 282 284 285 284 283 283 282 283 284 285 285 286 285 286 287 286 286 288 289 289 289 290 291 290 291 292 294
287 285 285 281 284 273 281 287 287 283 284 286 286 284 283 281 282 283 285 284 284 283 282 282 282 284 285 286 286 285 285 285 285 285 285 286 288 287 288 287 286 286 287 287
291 287 283 281 280 281 282 283 282 283 281 285 284 285 283 283 283 280 284 285 285 283 283 282 283 284 285 284 286 284 283 282 282 282 283 284 285 286 286 286 285 285 286 285
290 289 285 282 276 274 280 283 287 287 277 285 284 283 282 286 278 278 283 285 284 284 283 282 282 284 283 285 285 284 281 280 279 281 281 283 284 283 284 285 285 285 285 284
282 282 278 279 277 279 281 284 288 279 276 287 284 282 281 278 280 282 284 283 283 283 282 282 281 280 281 282 283 282 281 278 279 281 281 281 282 282 283 284 284 284 284 283
280 279 276 278 275 272 284 284 279 283 287 287 285 284 282 282 282 281 283 280 281 280 280 281 279 279 281 281 281 281 281 281 280 279 278 279 280 281 281 281 282 282 282 281
279 282 278 279 278 284 287 285 288 288 286 287 286 285 284 283 282 280 277 278 279 279 279 279 278 278 279 280 280 280 283 283 281 279 278 278 279 279 280 280 280 279 280 280
287 288 279 279 282 283 285 287 287 287 285 286 287 288 287 285 284 279 279 278 278 278 278 278 278 277 277 278 279 280 282 284 283 279 278 277 278 278 278 279 279 279 278 278
282 285 283 281 283 283 284 284 285 285 286 283 282 282 283 280 279 278 278 278 277 277 277 277 276 276 276 277 277 278 280 281 281 281 281 278 277 277 277 278 278 279 280 280
285 283 281 278 285 283 282 284 286 283 281 282 281 279 280 279 278 277 276 277 276 276 276 275 275 274 274 274 275 275 277 280 279 279 279 279 277 276 276 276 276 280 280 281

GFSCGP_sfc_thetae_111.txt.gz
Theta_e
287 282 279 282 282 283 281 279 278 283 288 285 283 283 286 290 293 296 298 297 299 302 302 302 303 303 300 303 328 334 334 334 335 333 331 330 330 331 331 332 332 332 331 329
284 280 285 288 287 285 284 281 280 283 286 287 285 283 286 290 296 297 298 298 297 300 304 308 308 309 309 309 311 325 333 333 335 334 333 333 333 329 331 331 330 331 331 330
281 283 288 286 284 282 283 282 281 280 283 288 287 282 284 290 295 299 300 302 301 302 303 304 302 301 302 302 305 321 329 332 333 333 333 327 327 326 323 329 330 330 330 331
283 288 286 284 283 284 280 287 285 282 280 275 285 274 283 288 291 296 298 299 299 298 298 298 298 298 298 299 302 306 323 332 333 333 333 329 329 327 328 328 331 332 330 329
284 285 284 283 284 288 283 289 286 285 281 281 281 277 280 291 291 294 296 295 294 294 294 294 295 296 297 297 298 302 306 309 312 329 333 330 329 329 324 324 324 328 329 329
286 290 288 287 289 289 290 287 286 284 281 275 279 279 280 285 292 292 292 291 291 291 291 292 294 295 295 296 296 298 300 303 306 308 316 329 328 327 323 324 323 324 326 328
286 285 288 291 286 287 286 282 274 274 269 273 282 279 282 291 292 292 291 290 291 291 291 290 290 291 293 293 294 296 297 299 301 303 306 312 328 324 325 325 325 323 323 323
279 279 286 292 286 283 284 283 277 271 274 278 286 279 285 290 291 292 291 291 291 290 291 291 291 291 292 293 294 294 295 297 299 301 302 306 311 328 325 324 325 324 324 324
282 279 288 290 291 288 285 281 287 281 283 279 283 287 289 290 288 287 289 290 289 290 290 290 291 291 291 292 293 294 295 296 298 300 302 306 308 324 327 325 324 324 324 323
288 280 288 292 293 290 288 291 283 283 275 268 280 281 280 283 285 286 285 286 288 289 289 289 290 290 291 291 292 293 294 295 297 298 300 305 311 317 329 327 323 323 323 322
290 285 285 290 288 285 286 284 286 287 282 273 273 278 287 284 285 285 285 285 286 287 287 288 289 290 290 291 291 291 292 293 294 297 299 303 315 321 328 326 324 323 322 321
291 287 281 285 293 293 291 288 288 280 279 283 280 277 287 288 287 287 286 285 286 287 287 287 288 288 288 289 289 290 290 291 293 296 297 299 302 307 322 323 323 322 322 321
291 286 279 281 287 291 288 289 291 290 287 281 278 278 288 288 287 287 286 285 286 286 287 287 287 286 287 287 288 289 289 289 292 293 295 296 297 299 302 310 321 322 321 320
293 287 283 278 282 287 284 288 290 288 282 280 280 280 284 285 285 286 286 286 284 284 285 286 285 286 286 287 287 287 288 289 290 292 292 293 293 296 296 298 303 321 321 320
290 283 286 285 286 285 284 285 289 286 285 280 280 280 282 283 284 285 286 285 283 282 283 284 284 284 285 286 286 286 287 288 289 288 289 290 292 293 293 293 293 296 318 319
291 282 285 283 284 283 280 283 283 286 285 283 282 279 284 285 285 284 284 284 282 281 281 282 284 284 284 284 284 285 285 286 287 287 287 289 290 291 290 290 290 290 291 295
287 285 283 279 286 284 277 280 281 282 284 285 280 282 283 281 281 281 283 283 281 280 280 281 283 283 283 284 284 283 283 285 284 284 286 286 288 288 288 289 289 288 287 287
286 285 286 281 283 273 280 285 286 282 282 285 283 282 281 280 281 283 284 283 281 280 280 281 282 283 284 284 284 282 282 282 282 282 283 285 285 286 287 287 286 286 286 286
290 286 283 280 278 280 281 282 281 282 280 283 284 283 282 283 283 280 284 284 281 280 280 280 282 282 282 283 284 280 280 280 280 280 281 282 284 284 285 284 285 285 285 284
289 287 283 282 276 273 278 282 286 286 277 284 283 282 282 284 277 277 283 283 282 281 280 279 280 281 281 281 283 280 278 278 277 279 280 280 281 281 283 283 283 284 284 283
281 282 278 279 277 278 281 284 288 277 277 285 283 281 279 278 279 282 281 279 280 280 279 280 279 279 280 280 282 281 279 277 277 278 279 279 279 280 281 282 282 283 282 282
279 278 276 278 274 271 283 284 279 283 286 285 284 283 281 281 281 279 277 275 278 278 278 278 277 278 279 279 280 280 281 281 279 278 278 278 278 279 279 279 279 280 281 281
278 280 278 279 276 284 286 285 287 287 284 287 284 284 284 281 278 275 274 275 277 277 276 277 276 277 277 277 278 278 280 282 280 279 277 277 278 278 279 278 278 278 279 279
285 287 279 278 282 282 284 284 286 287 282 282 287 286 285 279 278 276 276 276 276 276 275 276 275 275 275 276 277 277 279 280 281 280 278 277 277 278 278 279 279 279 278 278
283 284 281 280 282 282 282 283 283 283 283 281 281 281 280 278 277 277 276 276 275 275 275 274 274 274 273 274 275 275 277 280 279 279 280 277 276 276 276 278 278 279 280 281
285 282 280 274 282 282 280 283 283 281 280 280 279 277 278 278 276 276 275 275 274 274 274 273 273 272 272 272 273 273 275 277 278 278 278 278 276 275 275 274 274 279 279 281

GFSCGP_sfc_thetae_117.txt.gz
Theta_e
289 285 283 286 286 286 284 282 281 284 287 286 285 285 288 292 292 292 292 293 294 295 299 301 309 310 310 315 330 337 337 336 335 334 332 330 329 331 332 337 338 336 335 336
286 284 289 288 287 285 284 282 281 285 287 286 285 285 289 291 292 292 292 292 294 296 297 301 305 304 305 307 313 335 338 338 335 335 335 336 334 334 333 334 335 336 337 335
284 288 288 286 286 283 284 282 282 282 285 287 285 284 287 291 292 293 294 295 296 297 298 300 301 301 302 303 306 313 332 339 338 337 336 336 335 335 333 332 332 333 337 336
286 289 287 286 285 286 281 286 284 283 282 278 287 276 285 289 291 293 293 292 291 293 295 296 297 298 299 300 304 310 317 335 337 336 336 333 332 329 332 333 333 332 334 335
286 287 287 286 287 287 284 287 286 285 283 282 283 279 283 290 286 288 289 291 292 292 293 293 294 296 297 299 300 304 309 309 313 328 335 332 333 334 334 334 332 333 333 334
288 292 290 288 290 289 290 287 287 286 283 276 281 280 282 282 283 286 287 290 291 292 293 293 294 295 295 297 298 301 305 305 307 311 314 328 333 333 330 332 331 332 333 332
286 288 290 291 287 289 288 285 279 277 278 276 284 279 281 286 286 286 285 286 290 291 291 292 291 291 293 293 294 298 301 301 303 305 308 310 312 320 330 331 332 330 330 330
280 279 286 290 288 286 286 285 279 273 275 278 285 278 280 287 287 287 287 285 287 288 290 291 291 291 291 292 292 293 297 298 300 304 305 309 310 312 314 329 331 333 330 331
279 280 290 291 293 291 286 283 288 282 283 279 281 282 286 286 285 285 285 285 284 286 288 288 290 291 291 291 291 292 293 295 296 299 301 304 307 309 313 315 326 330 333 331
284 279 287 290 293 292 289 291 283 284 276 275 280 278 277 280 282 283 282 282 283 285 285 287 288 289 290 290 291 292 292 292 294 296 298 301 303 305 309 316 316 325 328 330
286 282 284 289 288 287 287 286 287 287 284 279 277 276 284 282 283 281 281 282 283 283 284 285 287 288 288 289 289 290 290 291 292 294 295 297 298 300 303 306 312 312 326 326
288 286 279 284 290 294 291 288 288 281 280 284 279 276 286 286 284 283 282 282 283 284 284 284 285 286 286 287 287 287 288 289 290 292 293 294 295 296 298 298 301 305 308 326
289 284 280 282 287 287 286 288 289 288 287 283 278 277 287 285 284 283 281 281 282 283 283 284 284 284 284 285 285 286 287 288 290 291 291 291 292 293 294 295 297 299 301 305
292 286 282 277 280 284 280 283 287 288 281 277 277 277 280 281 281 281 281 281 282 282 282 282 282 283 283 283 284 284 285 287 289 289 289 289 290 291 291 293 294 295 297 297
289 283 285 285 285 284 282 281 283 281 283 278 278 277 279 280 281 281 281 281 280 280 281 281 281 281 282 281 282 283 284 285 287 287 287 287 289 290 290 290 291 293 293 294
290 283 285 283 286 285 280 281 282 283 282 280 280 277 282 282 282 280 280 279 279 279 279 280 281 281 282 281 281 281 282 284 285 284 285 287 287 287 287 288 288 289 289 290
284 283 283 280 285 283 278 279 280 281 282 283 278 280 281 279 279 279 279 279 278 278 279 279 280 280 281 282 281 280 281 283 283 283 283 284 286 286 286 286 287 286 287 287
284 283 284 282 283 274 281 284 284 280 281 283 281 281 281 279 280 280 280 278 278 278 279 279 279 279 281 283 283 282 281 281 281 281 281 282 283 285 285 285 285 285 285 285
287 285 282 280 279 280 281 281 281 281 278 282 282 283 282 282 283 278 279 279 278 278 279 279 280 279 281 281 284 282 280 280 280 279 280 280 282 282 283 283 284 285 285 284
288 288 283 282 277 274 278 282 286 286 277 282 282 281 281 285 279 277 278 278 278 279 279 279 279 280 279 280 283 282 281 279 278 279 279 280 281 281 281 282 283 285 285 285
281 282 279 279 277 277 281 284 288 277 277 282 282 281 281 278 279 278 279 277 278 278 278 279 279 278 278 279 281 280 280 280 280 281 281 281 281 281 282 283 283 283 284 285
279 278 277 279 276 274 284 285 280 282 285 283 283 282 280 279 278 277 276 276 277 276 277 278 278 277 278 279 279 278 278 281 283 281 280 280 281 281 282 282 283 283 282 282
279 281 279 278 277 283 286 283 285 288 285 284 283 282 281 279 276 276 275 275 275 276 276 277 277 277 277 278 278 277 278 281 281 282 280 280 280 281 281 281 281 282 282 280
284 286 280 280 282 282 283 285 284 284 284 285 284 282 281 279 278 277 276 276 275 275 275 276 276 276 275 277 277 277 278 281 281 280 280 280 280 280 280 280 281 280 281 280
284 285 281 280 281 282 282 283 283 282 282 281 281 280 279 279 277 277 275 275 275 274 274 275 275 274 274 275 276 276 278 280 280 280 280 280 280 279 279 279 278 279 280 280
285 283 281 279 283 283 281 283 284 281 280 280 279 278 278 278 276 277 276 275 275 273 274 273 273 273 273 274 274 275 276 278 279 278 278 278 279 279 278 277 278 277 277 278

GFSCGP_sfc_thetae_120.txt.gz
Theta_e
295 292 290 291 291 291 289 288 287 291 294 291 290 291 293 297 297 297 298 299 300 301 303 304 305 307 307 310 315 317 318 335 341 338 336 335 334 337 338 340 342 343 340 340
293 290 292 292 291 290 290 288 288 291 292 291 291 291 295 296 298 299 299 300 300 301 302 303 304 306 312 313 315 319 322 327 339 340 338 336 336 336 337 339 341 343 338 339
290 292 292 292 291 289 290 288 288 287 291 294 291 290 293 296 297 296 297 297 298 299 300 303 306 308 310 311 313 316 326 328 338 338 339 337 338 337 335 336 338 340 341 338
292 294 291 291 290 292 287 291 289 288 288 285 292 282 291 292 292 292 292 291 292 293 295 297 299 300 302 304 307 314 323 330 337 337 337 334 335 332 336 336 337 336 339 340
291 291 291 290 291 291 289 293 290 290 289 289 289 285 290 291 286 287 289 289 290 291 293 293 294 296 297 298 300 307 312 312 316 336 337 334 338 338 339 338 337 336 337 340
293 297 294 293 294 294 294 292 292 292 289 283 287 285 287 284 283 285 288 288 288 288 290 292 294 295 294 296 297 301 306 306 310 315 326 335 333 337 338 336 336 335 335 335
291 292 295 295 291 295 292 290 285 283 283 282 290 286 283 286 287 287 285 286 287 287 287 289 290 291 294 294 294 298 301 302 307 311 313 318 320 326 336 336 336 333 333 331
285 285 292 294 292 290 291 290 284 276 280 283 289 283 283 288 289 288 287 286 287 286 286 286 287 290 291 292 293 294 296 297 301 304 309 312 314 315 317 322 326 337 334 334
284 284 293 293 295 294 290 287 292 285 287 282 286 285 286 289 287 286 284 284 284 284 285 285 287 289 290 292 290 292 294 295 297 300 304 306 308 309 311 315 318 319 335 334
288 282 290 292 295 296 293 294 285 287 278 278 283 281 280 282 282 284 282 282 283 284 284 284 285 286 289 290 290 291 292 293 294 297 299 301 303 305 307 311 315 318 318 329
290 285 287 292 290 289 290 289 289 288 287 281 280 279 285 283 283 282 282 282 283 283 283 283 284 286 286 288 289 289 290 291 292 294 295 297 298 300 302 303 305 309 313 314
290 288 284 287 294 293 292 290 289 284 283 287 285 279 287 285 285 284 282 283 283 284 283 283 283 284 284 285 286 287 289 290 291 292 293 293 294 295 296 298 299 302 306 308
292 287 283 287 291 292 287 287 288 288 288 284 282 279 287 286 284 284 282 282 283 283 283 283 283 282 282 283 285 287 288 291 293 292 292 292 292 292 293 294 296 297 299 301
293 288 285 282 282 285 283 284 287 288 285 282 281 279 281 282 282 282 282 282 282 282 282 283 283 283 283 283 283 285 288 289 291 292 292 290 291 292 292 292 293 294 295 296
292 283 287 287 287 287 284 283 284 283 285 282 280 278 280 281 281 281 282 282 282 281 281 281 282 282 284 283 283 285 287 287 289 289 290 291 290 291 291 291 291 292 292 293
292 285 286 284 288 288 282 283 285 285 284 282 282 279 283 283 283 281 281 281 280 280 280 281 281 281 282 283 283 283 284 286 288 288 287 289 291 290 289 290 290 290 289 290
288 285 284 282 287 286 282 281 282 283 285 285 281 282 283 282 280 279 280 281 280 280 280 280 280 281 282 283 284 283 284 285 285 286 286 287 288 288 289 288 288 286 287 287
286 284 284 284 285 278 282 287 286 283 283 285 284 283 283 282 281 281 281 280 280 280 281 280 281 281 282 284 284 285 284 284 284 283 284 285 286 286 287 288 288 288 287 286
291 285 284 282 283 281 282 284 284 283 280 284 284 284 284 283 284 280 281 281 280 281 282 282 283 282 283 283 284 284 284 283 283 282 282 283 284 285 285 285 286 287 287 287
290 290 285 285 280 277 282 285 287 287 279 285 285 284 285 285 282 279 280 280 281 282 282 282 283 283 283 283 284 283 283 283 282 282 283 283 284 283 284 285 285 286 287 285
285 284 282 282 281 280 283 286 288 279 279 286 286 286 286 283 283 280 281 280 282 282 282 283 284 282 283 284 285 282 282 282 284 284 284 284 284 284 284 285 286 285 285 285
283 281 281 282 280 276 286 286 282 284 287 287 287 286 283 281 280 279 279 279 280 281 282 282 282 282 283 284 284 282 281 284 285 286 284 284 285 285 286 285 286 286 285 285
282 285 283 281 280 285 286 285 288 289 286 286 287 286 285 282 279 279 278 279 280 281 281 282 282 282 282 282 282 281 281 285 285 285 285 285 285 285 285 285 284 284 285 284
286 288 284 283 283 284 284 286 288 289 287 288 288 286 285 282 281 279 280 280 280 280 280 281 281 280 280 281 281 281 283 284 284 284 284 285 284 284 284 284 284 282 281 281
287 288 284 282 283 284 284 285 286 286 286 285 285 285 284 283 281 281 280 280 279 279 279 279 279 278 278 280 280 281 282 283 282 283 283 283 283 283 282 283 281 280 279 278
288 285 284 283 285 285 284 285 285 284 283 284 283 282 282 282 281 281 280 280 279 278 278 278 277 277 277 277 278 278 280 281 281 280 281 281 282 282 281 281 281 277 277 276

GFSCGP_sfc_thetae_123.txt.gz
Theta_e
299 294 293 296 295 294 293 292 291 295 298 294 294 294 297 301 302 301 300 300 301 301 304 306 309 310 309 309 309 310 313 321 324 340 340 340 338 339 340 340 345 345 343 342
295 293 297 295 295 294 294 292 292 295 296 295 294 295 298 299 300 299 298 298 297 297 299 301 303 308 311 313 314 315 315 317 322 324 341 341 339 339 340 340 344 347 343 341
293 296 296 293 294 293 294 292 293 291 294 295 295 293 295 299 300 298 298 297 296 293 293 295 297 299 304 305 308 312 314 316 320 326 337 337 341 339 337 337 340 344 343 340
295 298 294 293 293 295 290 296 293 291 291 287 295 285 294 295 294 294 295 294 292 292 293 292 293 294 297 299 302 305 309 314 319 325 328 334 335 333 334 337 339 342 345 340
294 294 293 293 294 295 292 296 294 294 292 292 292 289 293 294 289 290 292 291 290 291 291 289 290 291 294 296 296 298 303 312 314 318 326 337 333 338 338 339 339 342 344 342
296 300 296 296 297 297 298 295 296 296 294 286 291 290 289 285 285 288 289 289 288 289 289 291 290 290 292 295 295 296 300 305 307 314 329 340 333 337 333 337 339 339 339 340
295 295 297 298 294 298 296 293 286 284 285 284 291 289 285 289 289 287 287 287 288 289 288 288 286 287 288 291 293 296 298 301 303 309 314 316 333 334 339 330 335 335 333 335
288 287 294 298 294 292 293 292 286 278 281 284 291 285 284 291 292 290 289 288 288 288 287 285 285 286 286 289 291 294 296 298 301 305 308 311 313 321 323 319 321 331 333 334
288 287 296 296 297 296 293 289 295 288 289 285 288 288 290 291 289 288 286 286 285 286 286 284 284 285 285 286 286 292 294 296 298 300 304 306 308 314 315 317 319 321 322 327
291 285 293 295 297 298 295 296 287 289 280 280 285 283 283 283 283 285 284 283 284 285 285 284 284 284 285 285 288 292 294 293 295 298 300 302 303 306 306 307 309 311 314 317
293 287 290 293 293 291 293 291 291 291 288 282 281 281 285 283 283 283 283 284 284 284 284 283 283 284 285 286 286 289 293 293 293 294 295 297 299 301 300 301 302 306 310 309
294 290 286 290 296 296 293 291 291 284 284 286 287 280 287 286 285 284 283 284 284 285 284 284 283 284 284 284 286 289 289 291 292 293 293 295 295 295 295 296 298 302 303 304
293 289 285 288 292 294 290 291 290 289 288 284 282 280 288 287 285 285 283 283 284 284 283 284 283 283 283 284 284 286 288 288 290 293 293 292 292 292 292 293 293 295 296 297
294 290 287 285 287 289 284 287 288 287 283 286 283 280 283 283 283 283 283 284 284 284 283 283 283 283 284 284 284 286 287 289 290 291 292 291 291 291 292 292 292 292 292 292
294 286 287 290 289 289 286 282 286 284 287 283 282 280 281 282 283 283 284 284 283 282 282 282 282 283 283 285 285 286 286 288 290 290 290 292 293 293 292 291 290 290 290 290
293 286 287 285 290 289 284 284 286 285 285 283 284 280 284 285 285 283 284 284 283 282 282 281 281 282 282 284 285 286 287 287 288 288 288 291 291 291 291 289 290 289 289 289
290 287 285 283 289 288 283 283 285 285 287 287 284 284 285 284 283 282 282 283 282 282 282 281 281 282 283 284 285 285 286 286 286 285 286 288 289 289 290 291 289 288 287 287
288 286 287 284 287 278 283 291 290 287 287 288 286 285 286 285 284 284 283 282 282 282 283 283 283 283 284 285 285 286 285 286 285 284 284 286 287 287 288 288 288 288 288 287
293 288 284 283 283 282 283 287 287 286 284 287 286 286 286 286 286 282 283 283 283 284 285 286 286 287 287 286 286 286 285 285 284 283 283 284 285 285 286 286 286 288 287 287
291 291 286 285 280 279 284 287 291 290 281 288 288 287 286 286 281 282 283 282 284 286 286 286 286 286 286 287 287 286 285 285 284 285 285 285 286 285 285 286 286 287 288 286
285 286 283 284 283 283 285 287 290 280 282 288 289 289 289 284 283 282 283 282 285 285 285 287 286 285 285 286 287 285 286 285 288 288 287 287 286 286 286 286 288 287 287 287
285 284 284 285 281 279 287 287 283 287 289 289 288 288 285 284 282 281 280 281 283 285 285 286 285 284 285 285 285 284 284 287 288 288 287 287 287 288 288 287 287 286 286 285
284 288 286 285 282 286 287 288 290 290 288 288 288 288 286 283 280 280 280 281 283 284 285 285 284 284 284 284 284 283 284 286 287 287 286 287 286 287 287 286 286 284 284 284
288 290 285 285 284 284 287 289 290 289 288 289 288 288 287 283 283 282 283 283 283 283 283 284 283 281 281 282 282 282 284 285 286 285 285 285 285 285 285 285 283 282 280 280
289 289 285 283 285 286 286 287 288 287 287 287 288 287 286 286 284 284 283 283 283 282 282 282 281 280 280 280 280 281 282 283 283 283 283 283 284 284 283 284 282 281 279 278
290 287 285 286 287 287 285 287 288 286 285 285 285 284 285 285 284 284 283 282 282 281 281 280 280 279 279 278 278 278 280 281 281 281 281 282 283 283 283 282 282 278 278 277

GFSCGP_sfc_thetae_126.txt.gz
Theta_e
300 294 291 295 297 295 293 291 290 294 298 295 293 293 295 299 301 299 298 298 297 297 298 299 300 300 302 303 305 308 309 313 314 311 326 333 334 334 338 339 341 342 342 343
296 291 296 298 295 293 292 291 291 295 298 295 293 292 296 299 299 297 296 295 295 294 295 296 296 296 297 299 301 303 304 306 309 313 316 327 332 334 336 338 339 342 341 341
293 295 299 295 294 291 292 291 292 291 294 295 293 291 294 298 298 297 296 295 294 292 291 293 293 293 295 295 297 299 300 302 305 308 313 315 319 333 332 335 335 342 341 341
294 298 296 295 292 293 289 296 294 292 290 285 294 284 292 296 294 293 292 291 290 290 291 291 291 291 291 292 295 297 298 299 302 307 309 314 314 315 330 333 335 340 341 340
291 294 293 291 292 296 292 296 294 293 290 290 291 288 288 294 289 289 290 289 289 290 290 289 289 289 290 291 292 294 296 297 300 303 309 309 311 315 324 333 332 336 339 339
295 299 297 295 296 297 297 294 294 294 292 285 290 288 284 284 286 288 289 288 288 288 288 288 288 288 288 290 290 291 293 296 299 303 305 310 312 315 319 331 330 334 338 336
293 293 296 298 293 297 295 291 284 282 284 283 291 288 286 289 289 288 287 286 287 288 287 286 285 286 287 287 288 289 290 293 298 300 306 311 314 320 324 329 331 332 335 336
286 286 294 298 294 292 293 291 284 277 279 283 290 284 283 290 290 289 287 287 286 286 286 286 285 285 285 286 286 287 288 292 296 299 304 306 309 315 317 315 323 329 332 333
288 287 297 298 297 295 292 289 294 287 288 284 287 287 291 290 287 286 285 284 284 285 285 285 285 285 285 284 284 285 287 292 295 297 300 302 303 305 308 309 310 316 316 318
292 285 293 295 296 296 293 296 287 289 279 278 284 285 283 282 282 284 283 282 283 285 284 284 284 284 285 285 285 286 288 291 293 296 297 297 298 300 303 305 305 307 307 308
293 288 289 293 291 289 292 290 291 290 288 281 279 280 285 283 283 282 282 283 283 283 283 284 284 284 285 285 285 285 287 289 291 293 294 293 294 296 296 297 299 301 301 301
293 290 284 289 296 297 294 291 290 283 282 286 283 281 288 286 285 284 282 284 284 284 283 284 284 284 284 284 285 285 286 289 288 293 291 292 293 293 293 293 295 296 296 296
293 287 282 287 291 294 291 292 290 289 287 282 279 280 288 287 284 284 283 283 284 284 283 283 283 282 283 284 284 285 286 288 291 292 291 289 289 290 290 291 292 292 293 293
294 289 286 282 286 290 287 288 289 287 282 284 285 280 282 283 282 283 284 285 285 284 283 282 282 282 283 284 284 285 285 287 288 290 289 289 288 288 290 289 289 290 291 291
291 285 288 289 290 290 288 286 287 284 286 283 283 281 281 282 282 282 285 285 284 283 283 282 282 282 283 284 284 285 285 285 287 287 288 288 288 290 289 288 288 288 288 288
292 286 286 284 289 290 287 286 285 287 285 284 284 280 285 285 285 283 283 284 282 282 283 282 282 283 283 284 284 285 285 285 286 286 287 288 288 289 289 288 288 288 287 287
291 288 285 282 290 288 283 285 285 287 288 287 283 285 286 284 283 281 282 283 282 282 283 282 283 283 284 284 285 284 285 286 285 284 285 286 287 287 288 288 288 287 286 286
289 288 286 283 287 278 284 291 290 288 288 288 286 286 287 284 283 283 283 282 282 283 283 284 284 284 285 286 286 286 286 285 285 284 284 285 286 286 286 286 287 286 286 285
290 289 283 281 282 283 285 288 288 286 285 289 287 287 286 285 284 281 283 284 284 284 285 285 286 286 287 286 286 287 286 285 285 284 283 285 285 285 286 285 286 286 286 286
290 292 286 284 279 277 284 290 292 291 282 290 290 287 286 286 281 279 282 283 285 286 286 285 285 285 285 286 286 286 285 285 284 285 285 284 285 284 284 284 285 286 286 285
285 286 282 283 280 282 287 288 291 280 282 290 290 290 288 285 283 283 284 283 286 285 285 286 285 283 284 285 285 283 284 284 285 287 286 285 285 284 284 284 283 283 284 283
285 283 283 284 281 278 288 287 283 287 290 290 289 287 284 283 282 281 281 281 284 285 285 285 283 283 283 283 283 282 282 285 286 286 285 284 285 285 284 283 281 280 280 280
284 288 285 283 281 286 287 289 291 291 289 288 286 286 284 282 281 281 281 282 284 284 284 284 282 281 282 282 281 280 281 284 285 284 283 284 283 284 283 282 280 278 277 277
290 292 286 285 284 284 288 289 290 290 288 288 288 286 284 281 282 281 283 283 283 282 281 282 281 279 279 279 279 280 281 282 283 282 282 282 282 282 282 282 281 278 276 275
290 290 286 283 284 285 287 288 288 288 289 288 288 287 285 284 284 284 283 282 282 282 281 281 279 278 278 278 277 278 278 280 280 281 281 280 282 281 281 280 279 279 276 276
291 288 285 285 287 287 285 287 288 286 285 286 285 285 286 285 284 284 281 281 281 280 280 279 278 278 277 276 275 275 276 277 278 278 279 279 280 280 279 279 279 279 277 278

GFSCGP_sfc_thetae_129.txt.gz
Theta_e
294 287 284 288 290 292 290 286 284 286 292 291 289 287 289 291 293 291 291 290 290 290 293 294 294 294 294 294 294 294 295 297 299 299 301 304 309 320 331 334 338 337 341 342
290 287 293 296 295 292 289 287 286 289 294 291 287 286 290 293 292 291 290 289 288 289 290 291 291 291 291 291 291 292 293 294 296 298 299 302 306 313 318 330 335 338 337 341
288 292 297 295 292 291 288 287 287 288 290 290 289 286 288 292 293 292 291 290 288 288 287 288 288 288 288 288 289 291 292 292 294 296 298 301 304 311 315 319 329 334 338 339
290 295 294 293 291 291 285 292 292 290 287 280 289 278 288 290 289 289 288 286 286 286 287 287 286 286 286 287 289 289 290 290 293 295 296 298 300 304 308 313 318 327 336 338
289 291 291 290 291 292 288 295 291 291 286 284 286 282 284 291 286 286 286 286 285 286 286 286 285 285 286 287 287 289 289 289 292 295 297 299 301 304 307 310 314 317 330 337
291 296 294 293 295 294 296 292 290 290 287 277 286 286 282 281 283 284 286 285 285 285 287 286 286 286 285 286 286 287 287 289 291 294 297 299 300 302 305 308 312 314 321 333
290 291 293 295 290 294 292 286 278 276 276 278 288 283 279 284 285 284 283 283 285 286 285 284 283 283 285 285 286 287 288 288 290 294 297 299 302 306 308 308 312 316 315 317
283 280 291 295 291 289 289 288 280 273 273 277 288 279 278 286 287 286 286 285 285 285 284 283 283 283 284 285 286 286 287 288 290 293 296 299 303 306 312 312 316 317 312 312
284 285 294 295 296 294 289 285 291 284 285 275 280 284 288 287 285 285 284 284 283 283 282 281 282 283 284 285 285 285 286 287 288 291 295 297 298 302 308 309 308 313 309 311
290 280 291 293 295 295 291 293 283 283 273 274 279 279 275 277 281 283 282 282 283 283 281 281 282 283 284 285 285 286 286 286 287 290 293 295 295 297 299 300 300 305 310 309
292 284 287 291 290 288 288 286 290 289 284 273 268 276 285 280 278 280 281 282 283 281 280 281 282 283 284 285 285 285 285 285 285 288 290 291 293 293 294 294 295 297 300 300
292 289 284 286 293 295 293 291 291 279 279 279 279 274 286 284 284 284 282 283 279 281 279 281 283 283 283 284 284 285 284 284 285 286 286 290 291 291 290 290 292 293 294 295
293 286 279 283 289 294 290 290 289 287 283 276 270 272 287 286 284 284 283 279 277 277 280 280 282 282 283 284 284 285 284 285 285 286 285 289 289 289 289 287 288 289 290 290
295 288 284 278 284 288 287 288 288 285 273 276 279 279 281 282 282 283 284 279 277 278 280 281 282 282 283 284 284 284 284 285 285 287 288 287 287 289 288 288 287 286 287 286
290 281 286 287 288 288 288 286 286 284 283 281 281 279 281 282 282 283 284 282 282 281 281 281 281 282 283 283 284 284 284 284 286 286 286 286 288 288 288 287 287 287 286 286
289 281 284 281 286 287 284 284 284 286 285 282 283 279 285 285 284 282 281 282 281 281 281 282 282 282 283 284 284 284 284 284 285 285 285 286 287 287 286 286 285 285 285 285
285 284 283 279 287 287 281 282 282 286 287 286 280 283 284 283 282 281 281 281 281 281 282 281 281 283 282 283 285 284 284 285 284 284 284 285 286 286 286 286 286 285 284 284
287 286 285 280 281 273 284 291 290 288 288 285 283 283 284 282 282 282 282 281 281 282 282 282 281 281 283 284 284 285 285 284 284 283 284 284 284 284 285 285 285 285 285 283
289 287 281 277 278 281 284 287 287 287 284 287 284 283 282 282 281 280 282 283 282 282 282 282 282 281 283 283 284 284 283 283 283 282 283 283 283 282 282 282 283 283 284 284
288 290 281 280 277 273 282 287 290 290 279 288 287 283 282 282 279 277 282 282 282 283 283 282 282 281 280 282 282 282 281 281 281 282 281 282 283 281 279 279 280 281 281 281
281 282 280 279 278 280 285 288 290 278 278 290 290 287 285 280 279 281 282 282 283 282 283 282 281 279 280 280 281 279 280 281 282 283 283 283 282 281 279 278 278 278 278 277
281 281 280 280 278 275 287 286 282 285 287 285 285 283 280 281 281 281 281 280 282 281 281 281 279 278 279 279 279 277 277 281 282 282 281 281 281 282 280 277 277 276 275 274
283 285 282 281 279 285 288 288 289 290 284 283 283 284 282 280 280 280 280 280 281 280 278 279 278 277 277 277 276 275 277 280 282 281 279 280 280 280 280 278 276 275 274 273
288 291 281 281 283 284 287 289 289 289 287 286 285 284 282 280 281 280 281 282 280 279 277 277 277 275 274 275 275 275 276 278 279 279 279 279 279 278 277 278 277 274 273 273
287 287 283 281 284 285 287 288 288 288 289 287 287 285 283 283 282 283 281 280 279 279 278 277 276 275 273 273 273 273 275 276 277 278 278 277 278 277 277 276 274 275 272 275
288 284 279 278 283 282 284 286 287 285 285 286 286 284 285 285 282 281 279 279 279 277 277 276 275 274 273 272 272 272 273 275 275 276 276 276 276 276 276 276 276 279 276 279

GFSCGP_sfc_thetae_132.txt.gz
Theta_e
292 285 283 286 287 289 288 285 283 284 289 287 287 284 286 288 288 287 287 287 287 288 290 291 291 290 289 289 289 289 290 291 291 291 292 294 295 299 303 312 317 329 334 336
288 284 291 293 293 290 288 285 284 287 291 289 285 283 287 289 288 287 286 285 286 286 287 289 289 288 287 287 287 288 289 289 290 290 291 293 295 298 303 305 313 323 325 333
286 290 295 293 291 289 288 285 284 285 288 289 287 283 286 289 289 289 288 287 286 285 285 286 287 286 286 285 286 287 288 288 289 290 291 293 295 298 301 306 311 317 323 327
288 293 292 290 289 290 285 290 289 288 285 279 287 276 285 287 286 286 286 284 284 284 285 285 285 284 284 285 286 287 288 288 290 291 291 290 291 293 298 303 307 309 315 320
287 288 288 288 290 292 287 293 290 288 285 282 284 278 281 288 285 283 284 284 284 284 284 284 284 284 285 285 286 287 288 288 289 290 291 291 293 296 299 302 303 306 310 317
289 294 292 290 293 292 294 290 289 288 285 276 284 282 279 280 281 283 283 284 284 284 284 284 284 285 285 286 287 287 287 288 289 291 292 293 294 295 297 299 301 304 309 314
287 288 291 293 288 291 291 284 277 276 275 277 287 282 278 282 283 283 282 283 283 283 283 282 282 283 284 285 286 286 287 286 288 289 290 293 296 298 300 302 304 306 307 312
281 279 289 294 289 287 288 287 279 274 273 277 287 279 278 284 286 286 285 283 284 282 283 282 281 283 283 285 285 286 286 286 287 289 289 293 296 298 300 304 305 307 311 312
282 283 293 294 294 292 289 285 290 282 283 276 280 282 285 285 284 284 283 283 283 282 282 281 281 282 284 284 285 285 285 286 287 288 288 290 293 295 298 302 307 309 313 313
288 279 290 292 294 293 290 292 281 280 272 275 279 280 276 280 280 281 281 282 281 281 280 281 281 282 283 285 285 286 286 285 286 287 288 289 290 292 295 297 298 301 306 307
290 282 285 291 288 287 287 285 288 288 283 277 272 276 284 281 276 278 282 283 277 278 279 280 281 281 283 284 285 285 285 285 285 286 287 288 288 290 292 293 293 294 296 298
291 286 280 285 292 294 291 289 289 281 281 280 276 275 284 282 282 283 283 281 276 278 278 280 279 282 282 283 284 284 284 284 285 285 286 286 287 287 288 290 291 291 290 291
290 285 277 281 288 292 289 290 289 287 282 277 272 272 285 284 283 284 283 275 275 275 276 277 280 281 282 283 284 284 284 284 285 285 285 286 285 286 286 288 289 291 290 289
295 286 282 278 283 288 286 288 288 285 275 276 277 274 281 282 282 283 283 277 275 273 275 275 279 280 282 283 284 284 283 285 285 285 285 285 285 285 285 287 287 288 286 286
288 279 285 286 287 288 286 285 287 284 284 279 275 279 280 282 282 283 283 280 280 279 280 278 278 280 281 283 284 284 284 284 285 285 285 284 285 285 286 286 285 285 285 285
287 277 281 281 286 286 283 284 286 287 285 282 283 281 283 284 284 282 281 281 280 280 280 281 281 282 281 282 284 284 283 284 284 283 283 284 285 285 285 285 284 284 283 283
284 281 280 277 284 284 279 282 284 284 286 284 280 283 283 282 282 281 280 281 280 281 280 280 279 281 282 281 282 283 284 284 283 282 282 281 282 282 283 284 284 282 281 281
284 282 282 278 282 271 280 290 289 287 288 285 283 282 283 282 282 282 281 280 281 281 280 280 278 278 280 281 281 283 283 283 282 282 281 280 279 279 281 281 281 282 281 278
289 285 282 278 278 279 283 286 286 285 284 286 283 281 281 281 280 279 282 282 281 282 281 280 280 279 279 279 280 280 281 281 281 281 280 280 279 278 277 277 277 278 278 278
288 288 282 280 276 272 281 286 290 290 279 286 284 281 279 280 277 278 281 282 282 282 281 279 278 278 278 279 279 278 278 279 279 280 281 280 279 277 276 276 276 276 277 276
281 281 279 279 278 280 285 287 289 279 278 286 285 283 281 279 280 282 283 282 283 282 280 280 278 276 276 277 278 276 277 277 279 280 281 280 279 278 277 277 277 275 274 274
280 278 278 279 277 275 287 285 281 283 283 283 283 284 282 280 281 282 282 280 281 280 279 278 276 275 275 275 275 274 274 278 280 280 280 279 279 280 278 276 276 275 274 273
281 284 282 281 279 284 288 286 287 286 283 282 281 282 282 281 280 281 280 280 279 278 277 277 275 274 274 274 273 272 274 277 278 278 278 278 278 278 278 276 275 273 273 272
289 289 281 280 282 284 287 288 287 288 285 284 284 283 282 280 281 281 281 279 278 277 276 276 275 272 272 273 273 273 275 277 278 277 277 278 277 277 277 277 276 274 272 272
286 287 282 281 283 284 286 288 288 286 285 284 284 283 282 281 281 282 280 278 278 277 277 276 274 272 271 272 272 273 274 276 277 276 276 276 277 276 276 277 275 276 274 275
287 283 279 278 283 282 285 287 288 286 285 285 283 283 284 284 282 280 278 278 277 276 276 274 274 272 271 271 271 272 273 274 275 275 275 275 275 275 275 275 274 278 277 279

GFSCGP_sfc_thetae_135.txt.gz
Theta_e
291 285 284 285 286 287 286 283 282 284 288 286 285 283 284 286 286 284 284 284 285 285 288 289 289 288 287 287 287 287 287 288 289 288 288 288 289 291 294 297 301 305 306 316
287 283 290 291 291 288 286 284 283 285 288 288 285 282 285 287 286 285 284 283 284 284 286 287 287 286 286 286 286 286 287 288 289 289 289 290 290 291 293 296 299 302 307 317
284 288 293 291 289 287 287 284 283 284 287 288 285 282 283 286 287 287 286 285 284 284 284 284 285 285 285 284 285 286 288 288 289 290 291 291 291 292 292 295 298 303 310 311
286 291 290 288 287 288 283 289 288 286 284 278 285 276 283 284 284 285 284 283 283 283 284 284 283 283 283 284 286 287 288 288 289 290 289 289 288 288 291 293 297 301 306 308
285 287 287 286 287 290 286 291 288 287 283 281 282 276 279 285 284 283 283 283 282 283 283 282 282 283 284 285 286 287 287 288 288 289 289 289 289 291 293 294 296 298 301 304
288 292 290 289 291 290 292 288 287 286 282 275 282 280 278 280 281 283 283 283 283 283 283 283 283 283 284 286 286 286 287 287 288 288 289 290 289 290 293 295 295 297 300 303
286 287 290 292 287 289 288 284 276 275 274 276 284 280 278 282 283 283 281 281 282 282 282 281 281 281 284 284 285 286 286 285 287 288 289 289 290 292 293 296 298 300 301 303
279 278 288 292 288 285 286 286 278 273 272 275 285 279 279 284 285 284 284 285 283 281 281 281 280 281 283 285 285 286 286 285 287 287 287 289 290 291 292 296 299 301 304 305
281 281 291 291 291 290 286 283 289 283 281 275 279 281 282 284 283 283 282 283 279 279 280 279 280 281 283 284 284 285 285 285 286 287 288 288 289 289 290 293 297 302 308 308
287 279 288 291 292 291 290 291 283 283 274 274 277 276 276 281 281 280 276 281 277 279 279 279 279 280 283 283 285 285 285 285 286 287 287 288 288 288 289 291 292 296 300 304
288 281 283 289 287 285 286 285 287 286 281 273 269 275 283 280 277 276 277 281 274 275 275 277 279 279 282 283 283 283 284 284 285 286 286 287 286 287 288 288 289 291 294 295
288 284 279 283 291 292 289 287 288 281 280 280 274 276 285 282 281 281 280 276 274 275 274 275 277 278 280 282 282 283 283 283 285 285 285 286 286 286 286 286 286 289 290 292
288 282 276 280 286 290 288 289 288 286 283 279 276 275 285 283 282 283 277 274 272 272 275 274 275 277 279 281 282 283 283 282 283 284 284 285 284 285 284 284 285 286 288 289
294 284 281 277 280 286 283 286 289 285 278 278 278 280 282 281 280 281 279 277 273 272 273 273 275 276 278 280 282 282 283 283 283 283 283 283 283 284 284 284 283 284 285 286
287 278 283 284 286 286 285 284 285 283 284 278 279 281 282 282 280 280 279 279 280 279 279 278 276 277 277 280 281 283 283 283 283 281 280 281 282 283 283 283 281 282 282 283
286 276 278 275 283 283 281 283 284 284 284 285 284 282 283 283 282 280 280 280 279 279 279 280 280 280 279 280 280 281 282 282 282 280 279 279 280 281 280 281 281 279 279 280
283 279 277 276 282 281 277 281 282 284 286 286 281 284 282 280 281 280 279 280 280 280 279 278 277 278 279 278 280 280 281 282 281 280 279 279 278 278 278 278 278 277 276 277
282 281 280 278 280 272 279 288 288 286 288 287 283 282 282 281 281 281 280 279 280 280 279 278 276 277 277 278 278 279 281 281 281 280 279 278 278 278 277 276 276 276 276 275
287 281 279 277 276 279 282 285 285 284 284 286 282 281 280 279 279 277 281 281 280 279 278 277 278 278 277 278 278 278 278 279 280 279 279 279 278 277 277 275 275 275 274 274
286 286 281 280 276 273 279 285 289 288 279 285 283 280 279 279 275 275 280 281 281 279 278 276 276 276 275 276 277 277 276 277 277 278 279 279 278 277 276 276 275 275 274 274
280 282 279 279 277 280 285 287 288 278 278 285 284 282 280 278 278 279 281 280 280 279 277 277 276 274 274 275 276 274 275 275 278 279 279 279 278 277 276 275 276 274 274 274
280 279 278 279 277 274 287 285 281 282 281 283 284 283 281 280 280 280 280 280 280 278 276 276 274 273 273 274 274 273 273 276 278 278 278 278 278 278 278 275 275 274 274 272
279 282 281 282 280 284 287 284 286 285 283 282 282 283 282 281 280 279 278 278 279 277 275 275 273 272 273 273 274 273 274 277 277 277 277 277 278 278 278 276 275 273 274 273
288 290 284 283 283 284 287 287 287 285 283 283 284 283 282 280 280 278 277 277 277 276 275 275 273 271 271 273 274 274 275 276 276 276 276 276 276 276 276 277 277 276 275 274
286 287 283 282 282 285 287 288 284 284 284 283 284 283 282 281 279 278 278 278 277 276 275 274 272 271 271 272 273 273 274 276 276 275 275 275 275 275 274 274 274 276 275 277
287 285 281 279 283 282 282 287 286 283 283 283 282 281 283 282 280 279 278 278 276 275 275 273 272 271 271 271 271 272 274 275 275 274 274 273 274 273 273 272 272 276 277 279

GFSCGP_sfc_thetae_138.txt.gz
Theta_e
289 285 283 286 286 286 285 283 281 284 289 284 284 282 284 284 285 283 283 283 283 284 286 287 287 287 286 286 286 286 287 288 288 288 288 288 288 290 291 293 294 296 297 300
286 283 289 290 289 287 286 283 282 285 288 286 284 282 284 286 285 283 282 282 282 283 284 286 286 285 285 285 285 286 287 287 288 289 289 290 289 291 292 293 294 296 298 301
284 287 291 289 287 285 285 283 283 284 285 287 284 281 282 285 285 285 284 283 283 282 282 283 284 284 284 284 285 287 287 288 289 289 289 289 290 291 291 292 292 295 297 299
285 290 289 287 286 287 282 288 287 285 282 277 284 275 281 283 283 283 283 282 281 282 283 283 283 282 283 285 287 287 287 287 288 288 288 288 287 286 290 291 293 295 296 297
285 286 285 284 286 288 285 289 287 286 282 280 280 275 278 283 281 282 282 282 281 282 282 281 282 282 284 286 286 287 287 288 288 288 288 288 288 289 290 292 293 295 297 298
286 289 288 287 290 289 289 287 286 284 281 275 281 280 277 279 282 282 283 282 282 282 282 282 283 283 284 285 286 286 286 286 287 288 287 288 288 288 289 291 292 295 298 299
284 284 287 290 285 288 286 282 276 275 274 275 282 278 280 281 282 282 280 281 282 281 281 280 280 280 282 283 284 286 285 285 286 287 287 287 288 288 288 290 291 293 295 299
278 278 286 290 286 284 284 283 277 273 271 275 283 278 278 284 285 284 284 281 281 279 280 279 279 280 281 282 283 285 285 285 286 286 287 288 288 288 288 289 290 293 295 299
279 280 288 289 290 288 284 281 286 281 280 273 277 281 282 283 283 283 281 281 278 278 278 277 278 279 280 281 281 283 284 284 285 285 286 287 287 286 287 288 289 291 293 296
284 277 286 290 290 289 286 288 278 279 275 274 277 275 277 279 281 279 274 276 276 277 277 277 276 278 280 280 281 282 283 284 284 285 286 286 287 286 286 286 286 287 290 293
286 280 282 287 285 283 284 282 285 284 282 274 269 272 283 279 279 278 276 276 274 274 274 275 275 276 278 280 281 281 282 282 282 284 285 285 285 286 284 284 284 286 288 289
288 283 279 282 289 292 288 285 285 277 278 281 277 275 284 283 282 282 280 276 274 275 273 272 274 275 276 278 280 280 281 280 281 282 282 283 283 284 282 282 282 283 285 287
287 281 276 279 284 287 286 288 287 286 281 275 273 275 284 284 283 283 277 274 273 272 274 273 273 274 275 278 279 280 280 280 280 279 279 281 281 281 281 280 280 282 282 284
292 283 281 276 277 284 281 285 286 286 278 275 278 280 284 282 280 280 279 276 273 272 271 271 272 273 275 277 278 280 280 280 279 279 278 278 279 279 279 279 278 278 281 281
288 279 282 283 284 285 284 282 283 281 282 279 281 281 285 284 281 281 280 279 279 279 279 276 273 272 274 276 278 280 280 280 279 278 278 277 278 278 278 278 278 277 278 280
285 275 277 275 282 282 280 280 281 282 282 282 283 282 286 282 282 280 280 280 279 279 279 279 278 278 277 278 278 279 279 280 280 278 277 278 278 278 277 277 277 277 277 278
284 280 276 276 280 280 276 275 280 281 284 284 280 284 282 280 281 280 280 280 280 279 278 277 276 277 277 276 278 277 278 280 279 278 278 278 278 277 277 277 276 276 276 277
282 280 280 277 278 269 277 286 286 284 286 287 283 282 283 281 280 281 280 280 280 279 278 277 273 275 275 276 277 278 278 278 278 278 278 277 278 277 277 276 275 275 276 276
285 281 278 277 276 278 281 283 284 283 283 287 284 280 279 279 279 277 281 280 280 278 277 276 276 275 275 275 277 277 276 277 277 277 276 278 277 276 276 275 275 275 275 275
284 283 279 276 274 271 280 284 287 287 278 284 283 279 278 279 276 275 280 280 279 277 276 275 274 274 273 275 277 276 275 275 276 277 277 277 277 276 274 275 275 275 275 275
279 278 276 276 277 279 285 287 288 277 278 283 283 281 279 278 278 278 280 278 278 276 275 275 274 272 272 274 276 274 275 274 277 278 278 278 278 277 276 275 275 274 274 274
278 278 277 279 277 274 286 284 281 283 282 282 283 282 281 280 279 279 278 277 277 275 274 274 272 272 273 274 275 274 274 276 277 278 277 277 277 278 278 276 275 275 274 272
276 281 280 281 280 285 287 285 286 285 284 282 283 282 281 280 280 279 276 277 276 275 273 273 272 272 273 275 275 274 275 277 277 277 276 276 277 276 277 276 276 275 275 273
284 288 283 283 284 284 287 287 286 286 283 282 283 282 282 279 279 278 278 277 275 274 272 272 272 271 272 274 275 275 276 277 276 276 275 275 274 274 274 275 276 275 274 273
283 288 284 282 284 284 286 287 285 283 283 283 283 283 281 280 278 277 277 277 276 274 274 273 272 271 271 273 273 274 275 276 275 275 275 274 274 273 272 273 273 274 275 276
287 285 282 281 286 284 283 287 284 282 282 282 282 282 282 279 278 278 278 278 275 274 273 272 272 271 271 272 272 273 274 275 274 274 274 273 272 272 272 271 270 275 275 276

GFSCGP_sfc_thetae_144.txt.gz
Theta_e
300 297 296 297 295 294 293 293 293 296 299 296 296 296 297 297 297 296 296 296 297 296 297 298 298 299 299 300 299 299 299 300 299 298 297 297 296 297 298 300 301 301 303 303
297 295 298 296 295 293 293 292 293 295 296 295 296 295 296 297 296 297 296 296 296 296 296 296 297 298 298 298 298 299 299 299 299 297 296 296 295 295 296 297 298 298 297 298
294 296 296 294 293 292 293 292 292 292 295 297 295 294 294 296 296 295 294 295 295 294 294 295 295 296 297 297 297 297 298 298 298 297 297 295 296 295 294 293 293 295 296 297
294 296 293 293 292 293 289 294 292 292 291 288 294 286 294 296 294 293 294 294 295 294 294 294 294 294 295 295 297 297 297 297 297 297 295 293 291 288 290 291 292 293 295 296
292 292 292 290 292 293 292 295 293 293 292 291 292 288 293 294 293 294 295 293 293 293 293 293 293 293 294 295 295 296 296 297 297 296 295 292 290 290 289 290 290 292 294 295
293 296 294 293 294 294 296 294 294 294 292 285 290 289 292 293 294 295 295 293 292 292 292 292 293 293 293 294 294 295 295 295 297 296 294 292 289 288 287 288 288 290 292 293
291 292 295 295 293 296 295 291 286 284 285 283 290 288 290 295 294 296 293 292 291 292 292 291 291 291 291 291 291 292 293 294 295 295 293 291 288 287 287 287 287 288 289 290
286 285 292 296 292 290 291 290 285 277 280 284 290 284 292 294 294 293 293 290 290 290 290 289 287 290 290 289 289 290 291 292 293 293 292 290 289 287 287 287 287 287 288 289
286 286 294 295 295 294 290 288 293 286 288 284 287 290 292 291 291 291 291 291 289 289 288 286 286 289 289 286 285 289 289 290 291 291 291 289 289 287 286 287 287 288 288 288
290 285 291 293 295 295 292 294 285 288 278 277 284 286 288 288 291 291 286 289 287 287 287 286 285 286 287 285 286 287 288 287 288 289 288 289 287 288 287 286 285 287 287 287
293 290 288 292 290 288 290 288 289 289 287 280 280 285 295 291 289 289 286 286 286 285 284 285 285 285 286 287 285 285 285 284 284 286 287 287 285 286 287 285 285 285 286 287
294 291 285 287 293 294 293 289 290 284 283 286 284 285 296 296 295 295 291 286 285 286 284 284 284 285 284 285 285 284 284 284 284 284 284 285 285 284 285 284 285 286 284 286
293 287 281 283 289 293 290 291 290 290 289 283 281 285 294 294 293 293 290 286 284 284 283 283 284 283 284 284 284 285 285 284 285 285 284 283 283 282 283 283 284 284 284 284
294 288 284 280 283 288 286 288 289 288 283 284 285 287 291 293 294 295 293 289 285 284 283 284 283 283 284 284 285 285 286 287 287 286 285 283 283 283 283 283 283 283 283 283
291 284 287 287 288 288 287 286 287 285 286 282 285 285 289 292 294 295 297 289 285 284 284 284 283 283 283 284 285 286 286 286 287 286 285 285 285 285 283 283 282 282 282 283
293 285 287 283 287 287 284 287 287 287 287 286 286 286 293 296 294 292 292 288 286 285 285 284 284 284 283 283 284 285 285 286 286 285 284 285 285 284 284 284 283 281 281 281
289 287 284 280 285 285 281 285 286 287 289 288 284 290 295 294 294 292 290 288 287 286 285 284 283 283 284 284 284 284 285 286 285 284 284 284 284 283 283 284 283 283 281 280
287 286 285 281 283 275 286 290 290 288 289 291 291 292 294 294 293 292 293 290 288 286 285 283 283 283 284 285 284 285 285 284 284 283 283 283 283 282 282 282 282 283 283 281
291 287 283 280 280 284 286 288 288 287 288 293 291 293 291 290 290 287 291 291 289 287 286 285 284 283 283 283 284 283 283 283 282 281 280 282 282 281 281 281 281 282 282 281
290 291 285 283 278 275 285 290 294 293 283 292 292 292 290 290 289 292 289 289 288 287 285 284 284 284 284 284 284 282 281 280 280 281 280 281 281 280 280 281 280 281 282 281
284 285 282 282 280 283 290 292 294 281 285 293 293 292 291 289 290 291 290 288 287 285 284 283 283 283 283 283 283 282 281 279 281 282 282 281 281 281 281 281 281 281 280 280
283 282 281 283 279 277 293 292 286 292 294 293 293 292 291 291 289 288 287 285 284 282 281 281 281 282 282 282 282 281 280 281 282 281 280 279 280 281 281 281 281 281 280 279
282 286 285 285 285 293 295 294 297 297 294 295 293 293 292 290 288 285 282 282 282 281 280 280 281 281 281 282 282 280 280 281 281 280 279 279 279 279 280 279 280 280 280 279
290 293 288 288 292 292 294 297 296 296 294 294 294 294 292 289 286 283 282 282 281 280 279 280 280 280 280 281 280 280 281 281 280 279 278 278 277 277 278 278 278 278 278 278
290 291 288 289 291 294 295 296 297 296 293 291 291 291 289 289 286 284 283 282 282 280 279 280 280 280 280 280 280 280 280 280 279 278 278 278 277 277 277 276 276 277 277 276
292 289 288 287 294 293 294 296 296 293 291 291 290 288 289 289 287 285 283 284 282 280 279 279 279 279 279 279 279 279 279 280 279 277 277 277 278 277 277 277 277 275 275 275

GFSCGP_sfc_thetae_147.txt.gz
Theta_e
305 300 297 301 301 299 297 296 295 299 301 299 298 299 301 303 302 301 302 301 301 301 302 302 302 303 303 304 303 304 303 304 303 302 301 301 300 301 301 302 302 301 301 301
299 296 301 300 298 297 296 295 295 298 299 297 297 297 301 302 301 302 302 301 301 301 301 301 301 302 302 302 302 302 302 303 302 302 301 301 300 300 300 300 299 300 299 298
296 299 299 297 297 295 296 295 294 294 297 299 297 295 298 301 302 301 301 301 300 300 300 300 299 300 301 301 301 300 301 302 302 302 301 300 300 299 297 295 295 296 296 297
299 301 297 296 295 296 292 297 295 294 293 289 298 287 295 299 298 298 299 300 300 299 299 299 298 299 299 300 301 300 300 301 301 302 299 296 294 292 293 292 293 295 295 296
296 295 295 294 295 296 293 297 295 295 293 293 293 291 294 299 297 298 300 300 299 298 298 298 297 298 298 299 299 300 300 300 301 300 297 294 293 292 292 292 291 292 293 294
298 299 297 297 297 297 297 296 296 296 294 287 292 291 292 295 296 298 300 299 298 297 297 297 297 297 297 297 297 298 297 298 299 299 296 294 292 291 289 289 289 290 291 292
294 295 298 298 295 298 297 293 287 285 287 286 293 289 292 298 299 300 299 298 298 297 297 296 294 295 295 294 293 295 295 295 296 297 295 294 292 291 289 288 288 287 289 289
289 287 294 298 295 293 293 292 285 278 281 285 292 286 293 299 299 300 300 297 297 296 296 293 290 294 294 290 290 293 293 292 293 295 294 293 291 290 289 288 288 288 289 288
288 287 296 296 296 295 292 289 295 288 288 284 288 292 296 297 296 296 296 296 296 296 294 291 290 292 292 287 285 291 291 289 291 291 293 292 290 289 288 288 288 288 289 289
293 287 294 295 297 296 293 295 286 288 279 278 285 287 291 292 295 296 291 296 295 295 293 291 288 290 290 285 287 288 289 287 288 290 291 290 288 288 288 287 287 287 288 288
294 291 289 293 291 289 291 290 291 290 288 281 280 286 297 292 292 297 290 289 293 291 288 290 286 289 289 289 285 286 287 286 286 287 289 289 287 287 286 285 286 286 287 287
295 292 286 289 295 295 294 291 290 285 283 288 286 287 300 298 299 299 297 289 289 292 287 287 288 287 286 287 287 285 286 286 286 286 287 286 286 286 285 284 284 286 286 286
295 288 283 285 290 293 291 292 292 292 290 285 282 287 297 298 298 299 298 290 286 289 286 285 286 286 285 287 285 286 287 287 288 286 286 285 285 284 284 284 284 284 285 285
293 288 285 282 285 289 287 290 291 290 286 285 286 287 292 293 294 296 297 295 290 287 286 286 285 285 286 286 287 288 288 289 289 288 286 286 286 285 285 285 284 283 284 283
293 286 288 288 289 289 288 288 288 287 287 284 286 286 290 292 294 296 299 298 292 288 287 286 286 286 286 287 288 288 288 288 289 288 287 288 286 286 286 286 286 284 283 283
293 286 287 285 288 288 285 289 288 288 288 288 288 287 294 296 299 297 297 296 292 290 289 288 287 286 285 285 287 287 287 287 288 286 286 287 287 287 287 287 286 285 284 283
291 288 286 282 287 286 282 288 288 288 290 289 285 290 294 294 295 297 297 295 291 290 289 287 287 286 286 286 287 286 287 287 287 286 286 286 286 285 285 286 286 285 284 284
289 288 287 282 284 275 288 293 291 289 290 292 292 294 295 295 297 297 298 295 293 291 289 286 287 287 286 287 286 287 287 286 285 284 285 285 285 284 284 284 284 284 284 283
291 288 284 281 281 285 287 290 290 288 288 293 293 294 295 295 295 293 295 296 294 292 290 288 287 286 286 286 286 286 285 285 284 282 282 283 284 283 283 283 283 284 283 283
290 291 286 283 279 276 287 291 295 294 284 294 294 294 294 295 289 290 293 294 292 291 290 288 287 287 287 286 286 285 283 282 282 282 282 282 283 282 282 283 283 283 283 283
286 286 283 282 281 285 292 294 295 282 286 294 295 295 294 292 293 295 294 292 291 290 288 288 287 286 286 286 286 284 284 281 283 283 283 283 283 284 284 283 283 283 283 282
285 283 283 284 281 279 294 293 287 293 296 296 296 296 295 295 292 292 291 289 289 287 286 287 286 285 285 285 285 284 283 283 284 283 282 281 282 282 282 282 283 283 282 282
284 288 286 286 286 294 297 296 298 298 297 297 296 297 296 294 292 292 288 287 287 286 286 285 285 284 284 284 285 283 283 284 283 282 281 281 281 280 281 281 280 280 281 280
290 292 290 289 292 293 295 297 298 299 298 298 298 297 297 294 291 288 286 287 286 286 284 284 283 282 282 283 283 283 283 283 282 281 280 281 279 279 280 280 280 278 277 278
291 292 290 290 293 294 296 298 299 299 299 297 296 296 296 295 291 289 287 287 286 284 284 283 283 283 282 283 282 282 283 282 281 280 280 280 280 279 279 278 277 277 277 276
292 290 289 289 295 295 295 298 300 298 297 297 295 293 294 294 291 289 288 287 286 284 283 282 283 283 282 282 281 282 282 282 280 279 279 278 279 279 279 278 278 276 276 275

GFSCGP_sfc_thetae_150.txt.gz
Theta_e
306 299 296 300 300 301 298 296 294 297 301 299 298 298 300 302 302 301 302 301 301 302 302 303 303 304 304 304 303 303 302 303 302 301 299 299 298 299 299 300 298 298 298 297
301 296 301 302 300 298 296 294 293 297 300 299 297 296 300 302 302 302 302 302 302 302 302 301 302 302 303 302 302 301 301 301 301 300 300 299 298 298 298 297 295 296 295 296
297 299 302 299 298 296 295 294 294 294 297 298 295 293 296 300 302 302 303 303 302 301 300 300 300 300 301 300 300 300 300 300 301 301 299 297 297 296 294 293 293 293 294 294
297 301 299 298 296 296 292 298 296 294 292 287 296 286 294 298 298 300 300 300 300 300 299 299 299 299 299 299 300 299 299 300 300 300 296 294 292 290 292 291 292 292 293 293
295 298 296 295 295 297 293 297 295 294 291 291 291 288 292 298 295 297 298 299 300 299 299 298 298 297 298 297 297 298 298 298 298 299 296 293 292 292 291 291 290 290 291 291
297 301 298 297 298 297 298 294 294 294 293 285 291 291 290 294 297 298 300 300 299 298 298 298 298 297 296 295 294 296 295 295 296 296 295 293 291 290 289 288 287 288 289 289
295 295 298 298 294 297 295 291 285 284 285 284 293 289 292 297 299 300 299 298 298 298 298 297 294 294 294 291 290 293 293 291 293 293 293 292 290 289 288 287 286 286 286 287
289 287 295 297 294 292 294 292 285 278 279 283 291 285 291 299 300 302 301 300 298 297 297 294 292 294 292 288 288 290 290 288 290 291 292 291 289 288 287 287 287 286 286 287
288 288 297 297 297 294 290 287 294 287 288 283 286 290 296 297 296 298 298 297 297 297 295 292 291 293 291 285 286 289 288 286 288 289 290 289 288 287 286 286 286 286 287 287
292 287 294 296 296 296 292 294 286 289 278 277 283 285 290 291 295 296 290 297 296 298 295 287 288 291 290 285 287 287 287 285 286 287 288 287 287 287 285 285 285 285 286 286
294 292 289 293 291 289 289 288 290 289 286 280 279 285 297 291 293 297 290 289 296 295 289 292 285 290 289 286 285 284 285 285 285 285 286 285 285 285 285 284 284 284 285 285
294 292 285 288 294 295 293 290 290 285 282 286 286 284 300 298 299 300 298 289 290 296 286 289 289 286 286 288 286 284 285 283 284 286 286 285 285 285 284 283 283 283 283 284
295 288 282 284 288 292 289 291 291 291 290 284 282 285 297 298 297 299 299 295 288 291 286 285 287 287 284 287 284 285 285 287 287 283 283 285 284 284 283 283 282 282 282 282
296 289 285 282 285 289 287 290 291 290 286 285 285 286 291 292 293 295 296 294 290 289 287 284 285 285 287 287 286 288 289 290 288 286 283 282 282 282 283 284 280 280 281 280
291 285 287 287 288 288 288 287 288 286 287 283 285 286 289 292 293 296 299 293 290 288 287 286 286 286 286 287 288 288 288 289 288 287 287 286 284 283 284 283 282 280 280 280
292 287 288 285 288 287 285 287 287 287 287 287 287 286 294 296 298 297 297 297 293 290 290 288 288 287 287 286 286 287 287 287 288 286 285 286 286 285 285 285 284 283 280 279
290 287 285 281 287 286 282 286 287 287 289 288 284 290 295 294 294 296 298 297 295 292 290 288 288 287 286 286 287 286 286 287 286 285 285 285 285 284 284 284 284 283 281 281
289 288 287 282 284 275 287 292 291 289 290 291 291 291 295 294 296 297 298 297 294 292 291 288 287 287 287 287 287 287 287 285 284 283 284 284 284 283 283 283 282 282 282 281
291 288 284 280 280 283 286 289 289 288 287 292 291 294 295 296 295 294 296 297 295 293 290 288 286 287 287 286 286 286 285 284 283 281 281 283 282 282 282 281 281 282 282 281
290 290 284 282 277 275 286 292 295 293 283 294 294 293 293 294 288 292 294 295 294 292 290 288 287 286 286 286 286 284 282 282 282 282 281 281 283 281 281 282 281 282 281 282
284 284 281 281 279 283 290 293 295 282 285 295 295 295 294 292 294 295 295 293 293 291 289 289 287 286 286 286 286 283 282 281 283 283 283 283 283 282 282 282 282 282 281 281
284 282 282 283 280 277 294 293 287 293 296 296 296 296 296 296 295 294 293 290 290 289 288 287 286 285 286 286 285 283 282 283 283 282 282 281 281 281 281 281 281 281 280 279
282 287 285 286 286 294 298 295 297 298 296 297 297 297 297 296 293 292 289 289 289 287 286 286 285 284 284 285 285 283 282 283 282 281 281 280 280 280 280 279 278 277 278 277
291 293 288 289 292 292 295 297 298 298 298 298 299 297 297 295 293 290 288 288 287 287 285 285 284 283 282 283 284 284 283 283 282 280 280 280 278 279 278 278 278 275 274 274
291 292 290 289 293 294 295 297 298 299 299 298 299 297 296 296 293 290 288 288 287 286 285 284 283 282 282 282 283 283 283 283 281 280 280 279 279 278 278 277 276 276 275 275
291 290 288 287 294 294 295 299 300 298 297 298 297 296 295 296 294 291 289 289 287 285 284 283 283 283 282 282 281 282 282 282 280 279 278 278 279 278 278 278 275 277 276 276

GFSCGP_sfc_thetae_153.txt.gz
Theta_e
301 293 290 293 296 296 294 291 289 291 295 293 292 290 293 295 294 293 293 294 294 295 297 297 297 297 296 296 296 296 296 296 296 295 294 293 293 293 293 293 293 293 293 293
297 293 298 299 299 296 294 290 289 292 296 293 289 290 292 294 296 295 295 295 295 295 296 297 296 295 295 294 294 295 295 295 295 294 293 292 292 292 291 292 292 292 291 291
295 298 302 298 295 294 293 290 290 290 293 292 289 286 289 294 297 297 297 297 297 295 294 295 295 293 292 292 293 294 294 294 295 294 292 291 291 290 290 289 289 290 290 291
296 300 298 296 294 295 289 295 294 292 289 283 291 281 289 293 294 295 295 294 294 294 295 295 293 291 291 290 292 292 293 293 295 292 290 288 287 286 288 288 289 289 290 289
294 295 293 293 295 297 292 296 292 291 287 284 286 282 285 292 291 292 293 295 293 293 293 292 291 291 289 288 288 289 290 292 292 291 290 287 286 288 289 288 288 288 288 289
297 301 296 295 298 296 296 293 291 289 285 278 287 285 286 289 292 293 295 294 294 293 293 292 292 291 287 286 287 287 287 288 289 290 288 287 285 287 287 286 286 286 287 288
293 294 296 297 292 295 292 288 279 278 277 278 290 286 289 295 297 296 294 293 292 293 291 289 290 288 285 284 285 287 285 286 287 287 287 286 285 287 286 285 285 285 285 286
287 284 294 295 292 289 290 289 281 276 275 278 288 282 286 295 298 297 296 293 293 292 290 288 289 285 284 283 284 285 284 284 285 286 286 285 285 285 285 285 285 284 285 285
286 287 294 295 296 293 290 286 291 284 284 278 282 287 293 295 296 296 295 293 292 291 288 287 288 285 282 281 280 283 283 283 284 285 284 283 283 283 282 283 284 284 285 284
291 283 293 294 294 293 291 293 283 285 276 275 280 281 282 288 291 293 289 291 291 291 287 284 285 285 282 279 280 282 283 283 283 283 283 283 283 283 282 282 281 282 282 282
291 287 287 293 289 287 289 286 288 287 282 276 273 276 291 289 291 290 288 288 290 288 284 284 282 285 283 282 278 279 282 281 281 282 283 282 282 282 281 281 280 280 281 281
293 288 281 286 293 294 291 288 289 280 280 280 279 276 295 293 293 296 292 288 290 289 284 283 283 282 281 282 282 279 280 282 281 282 283 282 283 282 281 280 280 280 279 280
292 286 278 281 286 290 287 289 290 289 284 279 274 275 295 295 294 293 295 291 289 287 285 282 282 281 279 283 277 280 284 282 283 279 280 282 281 281 277 278 279 279 278 278
295 288 282 276 282 287 284 289 291 290 281 280 280 283 287 289 289 290 291 291 289 285 284 282 279 278 282 285 282 284 286 285 286 283 281 279 277 279 281 279 275 272 275 274
289 281 284 286 288 288 286 285 286 284 284 280 278 283 286 288 288 292 291 290 289 287 285 284 282 281 284 286 287 287 286 286 286 285 284 281 278 282 282 280 275 271 272 275
290 282 282 280 287 287 283 284 285 285 285 284 284 283 290 292 294 294 292 290 288 288 287 286 285 285 285 287 286 286 286 286 285 284 284 284 284 283 282 281 280 279 272 270
286 284 282 279 285 285 278 280 284 286 288 287 281 286 291 291 292 292 292 293 290 289 288 286 286 286 285 283 285 284 285 285 284 284 284 284 284 282 282 282 281 279 278 276
286 285 284 279 282 272 282 291 289 288 289 289 289 290 291 291 292 292 292 291 291 289 288 286 284 283 283 284 284 285 285 283 282 282 283 283 282 281 281 280 279 279 279 277
289 285 281 277 277 281 284 287 287 286 285 290 290 291 291 292 290 288 293 293 291 289 287 285 283 283 282 283 284 283 283 282 280 279 278 281 281 280 280 279 278 278 278 279
289 288 282 278 275 272 281 289 294 291 278 292 292 290 290 290 281 281 290 292 288 287 286 284 284 283 283 283 283 282 280 279 279 279 279 278 280 280 279 279 278 279 278 281
281 281 279 278 276 280 288 291 294 280 281 293 293 292 290 286 288 290 292 289 288 287 286 286 285 283 283 284 283 281 280 278 280 282 282 281 280 278 277 277 279 278 278 278
282 280 278 279 276 274 292 291 284 288 292 293 292 291 290 291 290 290 288 287 287 286 286 285 284 284 284 284 283 281 280 282 282 281 280 279 278 280 279 276 276 276 276 274
281 284 282 283 280 290 294 292 293 293 291 291 292 292 293 291 288 287 284 286 288 285 284 285 282 282 282 283 282 280 280 281 281 279 278 277 277 276 277 275 274 272 273 273
288 291 285 285 288 291 293 295 295 296 294 294 294 293 293 290 289 287 286 288 286 283 282 282 282 280 280 281 282 281 282 282 280 278 276 275 275 275 275 276 274 273 271 272
286 289 287 284 289 291 292 294 294 295 296 294 295 294 293 291 288 287 288 288 286 284 282 282 281 280 280 281 280 281 280 281 279 277 277 276 276 275 274 275 274 274 274 274
288 286 281 280 291 289 290 294 296 294 294 295 294 292 292 293 290 288 287 287 285 282 281 281 281 280 280 280 279 280 281 280 278 276 276 276 276 276 276 274 273 277 275 277

GFSCGP_sfc_thetae_156.txt.gz
Theta_e
297 292 289 292 293 295 293 290 287 289 293 290 290 288 292 294 292 290 290 292 292 293 294 295 295 294 293 293 294 293 294 294 293 292 290 290 289 290 290 290 291 290 290 290
293 289 296 298 297 295 292 289 287 290 294 291 287 287 291 292 294 292 292 291 293 293 293 295 294 292 292 292 292 292 293 293 292 290 290 289 288 289 288 289 289 289 289 289
291 295 301 299 295 292 291 289 288 288 291 291 288 284 288 293 296 293 295 294 294 293 293 293 293 290 290 289 290 290 292 292 291 291 289 288 288 288 287 287 288 288 289 289
294 300 298 297 294 293 288 294 292 290 287 281 289 278 286 290 290 293 293 292 292 293 293 292 290 288 287 287 288 289 290 291 291 290 287 285 284 283 287 287 287 288 288 289
293 293 292 290 293 295 291 293 291 289 285 282 284 282 281 291 288 290 291 292 292 292 291 289 287 287 286 286 285 286 287 288 289 288 286 284 283 285 287 287 286 286 286 287
297 300 295 293 295 295 295 292 291 289 286 278 284 284 283 288 290 291 292 292 292 291 290 289 287 286 284 284 285 283 285 285 287 286 285 284 283 283 283 284 284 285 285 285
294 295 297 296 290 293 291 286 279 278 277 277 288 285 286 293 293 294 292 292 293 292 291 288 285 283 283 284 284 284 283 283 285 285 284 283 283 282 282 283 283 283 283 282
285 282 292 295 292 289 288 287 280 276 276 278 287 282 286 294 295 295 294 293 292 290 289 287 285 283 282 284 283 282 282 282 283 283 283 282 282 281 281 281 281 281 281 281
284 285 293 293 294 292 288 285 290 283 283 277 281 287 293 295 293 293 292 292 290 288 288 287 284 282 281 281 279 281 282 282 283 282 282 281 281 280 280 280 280 280 281 281
291 282 291 292 293 292 288 292 282 281 274 274 278 280 280 288 291 292 289 290 289 289 288 285 284 282 281 278 279 281 282 281 282 281 281 281 280 280 280 280 279 280 280 279
291 285 286 291 287 286 287 285 287 285 281 275 271 274 289 288 291 292 289 289 290 288 286 285 282 282 282 280 277 278 281 281 280 281 281 280 280 281 280 279 279 279 279 279
291 286 280 286 291 292 290 288 287 281 279 280 276 274 292 294 293 293 291 288 286 287 281 282 282 281 280 281 280 277 281 276 277 282 282 282 281 281 280 279 279 279 277 278
290 284 277 280 285 290 286 288 289 288 283 279 275 274 293 295 293 294 293 290 288 284 284 278 280 280 279 280 277 279 280 281 281 281 280 282 280 281 278 277 278 277 277 276
294 287 283 279 282 287 283 286 290 287 278 279 278 282 287 290 288 288 289 289 290 286 284 282 277 278 280 282 280 282 284 284 285 282 279 276 277 280 281 278 273 274 274 274
290 282 283 285 288 288 286 285 286 284 284 281 280 284 285 288 287 290 290 290 289 287 285 284 280 279 280 283 285 287 286 287 286 284 283 281 277 282 281 276 272 273 272 271
290 282 282 281 286 286 283 282 284 284 285 284 284 282 288 290 293 291 290 290 289 288 287 287 284 283 283 286 287 284 283 283 284 284 283 284 283 283 281 280 278 278 272 269
286 284 281 279 285 284 279 276 282 285 286 286 280 285 290 290 291 290 290 290 289 289 287 285 284 284 284 285 284 282 283 284 283 283 283 283 282 281 281 281 280 278 276 275
285 284 283 279 281 273 282 289 289 287 288 288 288 289 290 291 291 291 291 291 290 289 288 285 284 284 283 282 282 283 282 282 281 281 281 282 281 280 280 279 279 278 278 276
289 285 281 278 278 280 283 286 286 285 284 289 289 290 290 291 290 287 291 292 291 289 287 285 285 282 281 281 283 282 280 280 280 279 280 280 281 280 279 278 278 278 279 277
287 288 283 279 275 272 280 289 292 290 278 290 291 289 289 289 280 281 289 289 287 286 285 283 283 283 282 281 282 281 279 278 278 280 279 279 280 280 279 278 278 278 279 278
281 282 279 277 276 278 286 289 293 279 280 291 292 291 290 286 287 289 290 286 286 285 283 284 283 282 282 282 281 279 279 278 280 281 281 280 280 278 276 276 277 276 276 276
280 279 277 278 275 272 289 289 282 286 290 291 290 291 290 290 290 289 287 284 285 284 284 283 282 282 282 282 281 279 279 281 281 281 281 279 280 279 277 275 275 276 274 271
280 282 279 281 279 287 292 290 291 292 290 290 291 291 292 290 288 286 283 284 285 284 284 284 283 282 282 282 281 279 279 281 280 279 278 276 277 276 276 274 273 272 273 271
286 290 282 283 286 288 291 294 294 295 294 293 293 292 292 289 287 285 285 286 286 285 282 282 282 281 280 282 282 281 281 281 279 277 276 275 274 274 274 275 274 272 271 272
285 288 285 283 287 290 291 292 294 295 295 293 293 293 291 291 288 287 286 288 285 285 283 282 281 279 279 280 280 280 280 280 277 277 276 275 275 274 273 274 273 274 272 273
287 285 281 280 289 288 289 294 295 293 293 294 293 291 291 291 289 287 286 286 285 284 282 281 280 279 279 280 279 279 280 279 277 276 276 275 275 274 273 273 272 276 274 277

GFSCGP_sfc_thetae_162.txt.gz
Theta_e
295 290 289 289 291 291 289 288 286 288 292 288 289 287 289 290 289 288 289 289 289 291 291 292 292 291 290 291 292 291 290 289 289 288 287 286 285 285 286 286 287 287 287 287
290 288 294 295 294 292 291 287 287 289 291 289 287 286 287 289 291 291 290 289 290 289 290 291 289 289 289 289 290 289 289 288 287 286 286 286 285 285 285 286 286 286 286 286
288 292 297 294 292 291 290 288 287 287 289 288 285 283 286 288 290 290 291 291 291 290 290 290 289 287 286 287 288 288 288 287 287 286 285 285 285 285 284 283 284 285 285 285
291 296 294 293 291 292 287 292 290 288 285 281 285 279 284 285 287 288 289 289 290 290 291 289 287 285 285 285 288 289 289 288 287 286 284 283 281 280 282 282 282 283 284 283
291 292 291 290 292 295 291 295 292 289 284 281 281 280 280 287 285 287 288 289 289 290 289 288 287 286 286 285 285 288 287 286 285 284 283 281 279 280 281 281 280 281 282 282
294 297 293 294 294 293 293 288 288 285 282 276 282 282 280 283 287 287 288 289 289 289 289 289 288 286 284 284 284 285 285 283 283 283 281 280 279 279 278 278 278 279 280 280
295 296 299 296 293 294 289 285 279 276 275 277 283 280 283 288 291 292 288 288 289 290 288 287 285 285 284 283 283 282 283 282 282 281 280 279 279 279 278 277 278 278 278 278
284 284 294 298 296 293 290 289 281 276 275 277 283 278 281 290 292 292 291 289 290 288 288 287 286 286 285 283 282 281 282 281 281 280 279 279 279 278 279 278 278 278 278 278
283 283 290 293 295 296 289 284 292 283 281 277 279 283 288 289 289 289 288 288 286 287 288 287 286 285 284 283 282 282 281 281 280 279 279 278 278 278 278 278 278 278 278 279
289 282 290 292 290 289 291 291 282 281 277 275 277 279 279 285 287 288 286 286 288 289 287 287 284 283 282 279 280 281 281 280 280 279 279 279 278 279 279 278 277 277 278 278
290 286 285 287 284 284 284 283 284 284 281 277 273 275 285 287 288 288 286 287 289 289 287 285 282 281 280 278 277 279 280 280 279 280 279 279 279 279 279 278 277 277 278 278
292 288 281 285 289 289 286 285 285 279 278 278 275 275 287 289 291 290 289 288 288 290 286 283 282 280 279 279 278 277 278 277 279 280 280 280 280 278 277 277 277 277 276 277
292 285 279 280 283 287 285 286 287 286 282 278 275 276 289 292 291 292 290 288 288 287 284 282 281 280 278 279 277 277 277 279 279 277 278 280 279 277 273 274 276 276 275 276
296 287 284 278 280 285 284 285 288 286 280 277 279 280 284 290 291 291 292 290 289 285 283 281 280 280 279 280 278 279 280 280 280 279 276 275 275 271 271 273 270 271 273 274
291 283 286 287 288 288 287 284 286 285 285 282 283 283 287 289 291 292 291 288 288 287 283 281 280 280 279 280 280 281 281 281 282 280 279 277 279 276 273 272 271 271 272 272
290 284 286 284 288 288 286 286 283 284 284 284 283 281 288 289 291 289 289 289 288 288 287 286 282 281 281 282 280 282 282 283 283 280 280 280 281 280 277 277 278 277 273 271
287 283 282 279 285 284 280 284 285 283 285 285 279 282 285 287 289 289 289 290 289 288 287 286 284 283 282 283 283 282 283 284 282 281 281 281 281 280 279 279 277 276 275 275
286 284 283 280 282 273 282 288 287 285 285 285 283 283 287 288 289 291 291 291 289 290 288 287 285 284 283 283 282 281 282 282 281 280 280 280 280 280 279 278 277 276 276 274
290 286 281 279 278 281 283 285 284 284 283 286 284 285 287 289 289 287 292 292 291 290 288 286 285 283 282 282 281 281 280 280 280 280 280 280 280 279 279 278 277 276 274 274
289 288 283 279 276 272 281 287 289 287 278 287 287 286 287 287 282 283 290 291 290 289 286 284 283 282 282 280 281 280 279 279 278 279 279 279 280 279 278 278 278 277 275 275
282 284 279 279 278 280 284 287 289 277 279 287 289 288 288 286 288 288 290 288 287 285 284 284 282 281 281 281 280 279 278 278 280 280 280 280 279 278 277 277 278 277 277 274
280 280 279 280 278 275 287 286 281 284 285 289 289 289 290 288 288 288 287 284 284 283 284 282 281 280 280 280 280 277 277 278 280 280 280 279 278 279 278 276 276 276 272 269
279 283 281 281 281 287 288 286 287 288 287 288 288 289 290 289 288 287 285 283 283 283 282 281 280 279 280 280 280 278 278 279 279 279 279 278 278 277 276 275 273 273 272 270
284 288 283 282 285 285 287 289 289 290 290 291 291 291 291 290 289 287 284 282 282 281 281 281 280 279 278 279 280 280 280 280 279 278 277 278 275 274 274 275 274 271 270 269
284 286 283 282 285 287 288 289 290 290 291 291 291 292 292 290 289 288 285 283 283 282 282 281 280 280 279 280 279 280 280 280 279 277 277 276 275 273 273 273 271 272 270 271
284 284 281 280 286 286 286 290 291 291 291 291 290 290 292 292 290 288 286 284 284 283 282 281 281 281 281 280 279 280 280 280 278 276 275 275 274 273 273 272 271 275 273 276